Location: Winthrop
(48.4780°N, 120.1850°W)
Time: 01:59:52
(UTC-07:00)

Transit 2A - Pass Details

Date: 18 June 2024
Orbit: 591 x 960 km, 66.7° (Epoch: 23 July)

Event Time Altitude Azimuth Distance (km) Brightness Sun altitude
Rises 00:52:03 0° 325° (NW) 3,467 10.4 -18.1°
Reaches altitude 10° 00:54:33 10° 331° (NNW) 2,572 9.7 -18.1°
Maximum altitude 01:00:28 53° 48° (NE) 1,138 7.1 -18.1°
Drops below altitude 10° 01:06:39 10° 125° (SE) 2,687 8.5 -18.1°
Enters shadow 01:07:03 - 126° (SE) 2,826 8.6 -18.1°
